Time,TemperatureF,DewpointF,PressureIn,WindDirection,WindDirectionDegrees,WindSpeedMPH,WindSpeedGustMPH,Humidity,HourlyPrecipIn,Conditions,Clouds,dailyrainin,SoftwareType,DateUTC
2013-08-07 00:00:00,81.9,74.8,29.92,North,0,0.4,1.1,79,0.00,,,0.03,WUHU216HW,2013-08-07 04:00:00,
2013-08-07 00:01:00,81.9,75.2,29.92,NE,45,0.4,1.1,80,0.00,,,0.00,WUHU216HW,2013-08-07 04:01:00,
2013-08-07 00:02:00,82.1,75.4,29.92,SE,135,0.2,1.1,80,0.00,,,0.00,WUHU216HW,2013-08-07 04:02:00,
2013-08-07 00:07:00,81.9,75.2,29.92,ESE,113,1.1,1.1,80,0.00,,,0.00,WUHU216HW,2013-08-07 04:07:00,
2013-08-07 00:12:00,81.9,75.2,29.92,SE,135,0.4,1.1,80,0.00,,,0.00,WUHU216HW,2013-08-07 04:12:00,
2013-08-07 00:15:00,81.9,75.2,29.92,ESE,113,0.7,1.1,80,0.00,,,0.00,WUHU216HW,2013-08-07 04:15:00,
2013-08-07 00:20:00,81.9,75.2,29.92,ESE,113,0.0,0.9,80,0.00,,,0.00,WUHU216HW,2013-08-07 04:20:00,
2013-08-07 00:25:00,81.9,75.2,29.92,ESE,113,0.9,1.1,80,0.00,,,0.00,WUHU216HW,2013-08-07 04:25:00,
2013-08-07 00:30:00,81.9,75.2,29.92,ESE,113,0.2,1.1,80,0.00,,,0.00,WUHU216HW,2013-08-07 04:30:00,
2013-08-07 00:35:00,81.7,75.1,29.92,ESE,113,1.1,1.1,80,0.00,,,0.00,WUHU216HW,2013-08-07 04:35:00,
2013-08-07 00:40:00,81.7,75.1,29.92,ESE,113,0.4,1.1,80,0.00,,,0.00,WUHU216HW,2013-08-07 04:40:00,
2013-08-07 00:45:00,81.7,75.1,29.91,East,90,0.2,0.9,80,0.00,,,0.00,WUHU216HW,2013-08-07 04:45:00,
2013-08-07 00:50:00,81.7,75.4,29.91,ESE,113,1.1,1.1,81,0.00,,,0.00,WUHU216HW,2013-08-07 04:50:00,
2013-08-07 00:55:00,81.5,75.3,29.92,ESE,113,1.1,1.6,81,0.00,,,0.00,WUHU216HW,2013-08-07 04:55:00,
2013-08-07 01:00:00,81.4,74.7,29.92,ESE,113,0.4,1.6,80,0.00,,,0.00,WUHU216HW,2013-08-07 05:00:00,
2013-08-07 01:05:00,81.4,74.7,29.92,ESE,113,0.2,1.6,80,0.00,,,0.00,WUHU216HW,2013-08-07 05:05:00,
2013-08-07 01:11:00,81.4,74.7,29.92,ESE,113,0.0,0.7,80,0.00,,,0.00,WUHU216HW,2013-08-07 05:11:00,
2013-08-07 01:16:00,81.2,74.5,29.92,ESE,113,0.4,0.4,80,0.00,,,0.00,WUHU216HW,2013-08-07 05:16:00,
2013-08-07 01:21:00,81.2,74.9,29.92,ESE,113,0.0,0.4,81,0.00,,,0.00,WUHU216HW,2013-08-07 05:21:00,
2013-08-07 01:26:00,81.2,74.9,29.92,ESE,113,0.4,0.7,81,0.00,,,0.00,WUHU216HW,2013-08-07 05:26:00,
2013-08-07 01:31:00,81.0,74.7,29.92,ESE,113,0.0,0.7,81,0.00,,,0.00,WUHU216HW,2013-08-07 05:31:00,
2013-08-07 01:36:00,81.0,74.7,29.91,ESE,113,0.0,0.4,81,0.00,,,0.00,WUHU216HW,2013-08-07 05:36:00,
2013-08-07 01:41:00,81.0,74.7,29.91,ESE,113,0.2,0.4,81,0.00,,,0.00,WUHU216HW,2013-08-07 05:41:00,
2013-08-07 01:46:00,81.0,74.7,29.91,ESE,113,0.0,0.4,81,0.00,,,0.00,WUHU216HW,2013-08-07 05:46:00,
2013-08-07 01:51:00,81.0,74.7,29.91,ESE,113,0.0,0.0,81,0.00,,,0.00,WUHU216HW,2013-08-07 05:51:00,
2013-08-07 01:56:00,80.8,74.5,29.91,ESE,113,0.0,0.4,81,0.00,,,0.00,WUHU216HW,2013-08-07 05:56:00,
2013-08-07 02:02:00,80.8,74.5,29.91,NE,45,0.9,0.9,81,0.00,,,0.00,WUHU216HW,2013-08-07 06:02:00,
2013-08-07 02:07:00,80.6,74.4,29.91,NE,45,0.0,0.9,81,0.00,,,0.00,WUHU216HW,2013-08-07 06:07:00,
2013-08-07 02:12:00,80.6,74.4,29.91,NE,45,0.0,0.4,81,0.00,,,0.00,WUHU216HW,2013-08-07 06:12:00,
2013-08-07 02:17:00,80.6,74.4,29.91,NE,45,0.4,0.4,81,0.00,,,0.00,WUHU216HW,2013-08-07 06:17:00,
2013-08-07 02:22:00,80.5,74.2,29.91,NE,45,0.0,0.7,81,0.00,,,0.00,WUHU216HW,2013-08-07 06:22:00,
2013-08-07 02:27:00,80.5,74.2,29.91,NE,45,0.0,0.7,81,0.00,,,0.00,WUHU216HW,2013-08-07 06:27:00,
2013-08-07 02:32:00,80.5,74.2,29.90,ESE,113,0.4,0.7,81,0.00,,,0.00,WUHU216HW,2013-08-07 06:32:00,
2013-08-07 02:37:00,80.5,74.2,29.90,ESE,113,0.2,0.7,81,0.00,,,0.00,WUHU216HW,2013-08-07 06:37:00,
2013-08-07 02:42:00,80.3,74.0,29.90,East,90,0.0,0.4,81,0.00,,,0.00,WUHU216HW,2013-08-07 06:42:00,
2013-08-07 02:47:00,80.3,74.0,29.90,East,90,0.2,0.4,81,0.00,,,0.00,WUHU216HW,2013-08-07 06:47:00,
2013-08-07 02:53:00,80.3,74.0,29.90,East,90,0.7,0.9,81,0.00,,,0.00,WUHU216HW,2013-08-07 06:53:00,
2013-08-07 02:58:00,80.3,74.0,29.89,ESE,113,0.4,0.9,81,0.00,,,0.00,WUHU216HW,2013-08-07 06:58:00,
2013-08-07 03:03:00,80.3,74.0,29.89,ESE,113,0.2,0.9,81,0.00,,,0.00,WUHU216HW,2013-08-07 07:03:00,
2013-08-07 03:08:00,80.1,74.2,29.89,ESE,113,0.0,0.7,82,0.00,,,0.00,WUHU216HW,2013-08-07 07:08:00,
2013-08-07 03:13:00,80.3,74.4,29.89,ESE,113,0.0,0.0,82,0.00,,,0.00,WUHU216HW,2013-08-07 07:13:00,
2013-08-07 03:18:00,80.1,73.8,29.88,ESE,113,0.0,0.0,81,0.00,,,0.00,WUHU216HW,2013-08-07 07:18:00,
2013-08-07 03:23:00,80.1,74.2,29.88,ESE,113,0.0,0.0,82,0.00,,,0.00,WUHU216HW,2013-08-07 07:23:00,
2013-08-07 03:29:00,80.1,74.2,29.88,ENE,68,0.4,0.4,82,0.00,,,0.00,WUHU216HW,2013-08-07 07:29:00,
2013-08-07 03:34:00,80.1,74.2,29.88,NE,45,0.0,0.4,82,0.00,,,0.00,WUHU216HW,2013-08-07 07:34:00,
2013-08-07 03:39:00,80.1,74.2,29.89,East,90,0.4,0.4,82,0.00,,,0.00,WUHU216HW,2013-08-07 07:39:00,
2013-08-07 03:44:00,79.9,74.0,29.89,East,90,0.4,0.4,82,0.00,,,0.00,WUHU216HW,2013-08-07 07:44:00,
2013-08-07 03:49:00,79.9,74.0,29.89,East,90,0.4,0.4,82,0.00,,,0.00,WUHU216HW,2013-08-07 07:49:00,
2013-08-07 03:54:00,79.9,74.0,29.89,East,90,0.2,0.4,82,0.00,,,0.00,WUHU216HW,2013-08-07 07:54:00,
2013-08-07 03:59:00,79.9,74.0,29.88,East,90,0.0,0.4,82,0.00,,,0.00,WUHU216HW,2013-08-07 07:59:00,
2013-08-07 04:04:00,79.7,73.8,29.88,East,90,0.0,0.4,82,0.00,,,0.00,WUHU216HW,2013-08-07 08:04:00,
2013-08-07 04:09:00,79.7,73.8,29.88,East,90,0.0,0.4,82,0.00,,,0.00,WUHU216HW,2013-08-07 08:09:00,
2013-08-07 04:14:00,79.7,73.8,29.88,East,90,0.2,0.2,82,0.00,,,0.00,WUHU216HW,2013-08-07 08:14:00,
2013-08-07 04:20:00,79.6,73.6,29.88,East,90,0.2,0.2,82,0.00,,,0.00,WUHU216HW,2013-08-07 08:20:00,
2013-08-07 04:25:00,79.6,73.6,29.88,East,90,0.0,0.2,82,0.00,,,0.00,WUHU216HW,2013-08-07 08:25:00,
2013-08-07 04:30:00,79.6,73.6,29.88,East,90,0.0,0.7,82,0.00,,,0.00,WUHU216HW,2013-08-07 08:30:00,
2013-08-07 04:35:00,79.6,73.6,29.87,East,90,0.0,0.7,82,0.00,,,0.00,WUHU216HW,2013-08-07 08:35:00,
2013-08-07 04:40:00,79.6,73.6,29.87,East,90,0.0,0.0,82,0.00,,,0.00,WUHU216HW,2013-08-07 08:40:00,
2013-08-07 04:45:00,79.6,73.6,29.87,East,90,0.0,0.2,82,0.00,,,0.00,WUHU216HW,2013-08-07 08:45:00,
2013-08-07 04:50:00,79.6,73.6,29.87,East,90,0.2,0.7,82,0.00,,,0.00,WUHU216HW,2013-08-07 08:50:00,
2013-08-07 04:55:00,79.6,73.6,29.87,East,90,0.0,0.7,82,0.00,,,0.00,WUHU216HW,2013-08-07 08:55:00,
2013-08-07 05:00:00,79.6,73.6,29.87,East,90,0.0,0.0,82,0.00,,,0.00,WUHU216HW,2013-08-07 09:00:00,
2013-08-07 05:05:00,79.6,73.6,29.87,East,90,0.0,0.0,82,0.00,,,0.00,WUHU216HW,2013-08-07 09:05:00,
2013-08-07 05:10:00,79.6,73.6,29.87,East,90,0.0,0.0,82,0.00,,,0.00,WUHU216HW,2013-08-07 09:10:00,
2013-08-07 05:15:00,79.4,73.5,29.87,East,90,0.0,0.0,82,0.00,,,0.00,WUHU216HW,2013-08-07 09:15:00,
2013-08-07 05:21:00,79.4,73.8,29.87,East,90,0.4,0.7,83,0.00,,,0.00,WUHU216HW,2013-08-07 09:21:00,
2013-08-07 05:26:00,79.4,73.5,29.87,East,90,0.0,0.7,82,0.00,,,0.00,WUHU216HW,2013-08-07 09:26:00,
2013-08-07 05:31:00,79.4,73.5,29.87,ENE,68,0.2,0.2,82,0.00,,,0.00,WUHU216HW,2013-08-07 09:31:00,
2013-08-07 05:36:00,79.4,73.5,29.88,ENE,68,0.0,0.2,82,0.00,,,0.00,WUHU216HW,2013-08-07 09:36:00,
2013-08-07 05:41:00,79.4,73.5,29.88,ENE,68,0.0,0.0,82,0.00,,,0.00,WUHU216HW,2013-08-07 09:41:00,
2013-08-07 05:46:00,79.2,73.6,29.88,ENE,68,0.0,0.0,83,0.00,,,0.00,WUHU216HW,2013-08-07 09:46:00,
2013-08-07 05:51:00,79.2,73.6,29.88,ENE,68,0.2,0.2,83,0.00,,,0.00,WUHU216HW,2013-08-07 09:51:00,
2013-08-07 05:57:00,79.2,73.6,29.89,NE,45,0.2,0.2,83,0.00,,,0.00,WUHU216HW,2013-08-07 09:57:00,
2013-08-07 06:02:00,79.2,73.3,29.89,NE,45,0.0,0.2,82,0.00,,,0.00,WUHU216HW,2013-08-07 10:02:00,
2013-08-07 06:07:00,79.2,73.6,29.89,NE,45,0.4,0.4,83,0.00,,,0.00,WUHU216HW,2013-08-07 10:07:00,
2013-08-07 06:12:00,79.2,73.6,29.89,NE,45,0.0,0.4,83,0.00,,,0.00,WUHU216HW,2013-08-07 10:12:00,
2013-08-07 06:17:00,79.2,73.6,29.89,ENE,68,0.4,0.4,83,0.00,,,0.00,WUHU216HW,2013-08-07 10:17:00,
2013-08-07 06:22:00,79.2,73.6,29.89,ENE,68,0.0,0.4,83,0.00,,,0.00,WUHU216HW,2013-08-07 10:22:00,
2013-08-07 06:27:00,79.0,73.5,29.89,East,90,0.0,0.7,83,0.00,,,0.00,WUHU216HW,2013-08-07 10:27:00,
2013-08-07 06:32:00,79.0,73.5,29.90,East,90,0.0,0.7,83,0.00,,,0.00,WUHU216HW,2013-08-07 10:32:00,
2013-08-07 06:37:00,79.0,73.5,29.90,East,90,0.4,0.4,83,0.00,,,0.00,WUHU216HW,2013-08-07 10:37:00,
2013-08-07 06:42:00,79.0,73.5,29.90,East,90,0.4,0.4,83,0.00,,,0.00,WUHU216HW,2013-08-07 10:42:00,
2013-08-07 06:47:00,79.0,73.5,29.90,ESE,113,0.7,0.9,83,0.00,,,0.00,WUHU216HW,2013-08-07 10:47:00,
2013-08-07 06:52:00,78.8,73.3,29.90,ESE,113,0.4,1.6,83,0.00,,,0.00,WUHU216HW,2013-08-07 10:52:00,
2013-08-07 06:58:00,78.8,73.3,29.90,ESE,113,0.9,1.6,83,0.00,,,0.00,WUHU216HW,2013-08-07 10:58:00,
2013-08-07 07:03:00,78.8,73.3,29.90,ESE,113,0.0,0.9,83,0.00,,,0.00,WUHU216HW,2013-08-07 11:03:00,
2013-08-07 07:08:00,78.8,73.3,29.90,ESE,113,0.0,0.9,83,0.00,,,0.00,WUHU216HW,2013-08-07 11:08:00,
2013-08-07 07:13:00,78.8,73.3,29.90,ESE,113,0.0,0.4,83,0.00,,,0.00,WUHU216HW,2013-08-07 11:13:00,
2013-08-07 07:18:00,78.8,73.3,29.91,ESE,113,0.0,0.4,83,0.00,,,0.00,WUHU216HW,2013-08-07 11:18:00,
2013-08-07 07:23:00,78.8,73.3,29.90,ENE,68,0.7,0.7,83,0.00,,,0.00,WUHU216HW,2013-08-07 11:23:00,
2013-08-07 07:28:00,78.8,73.3,29.91,ESE,113,1.1,1.1,83,0.00,,,0.00,WUHU216HW,2013-08-07 11:28:00,
2013-08-07 07:33:00,78.8,73.3,29.91,ESE,113,0.7,1.1,83,0.00,,,0.00,WUHU216HW,2013-08-07 11:33:00,
2013-08-07 07:38:00,78.8,73.3,29.91,ESE,113,0.0,0.9,83,0.00,,,0.00,WUHU216HW,2013-08-07 11:38:00,
2013-08-07 07:43:00,78.8,73.3,29.91,ESE,113,0.4,0.7,83,0.00,,,0.00,WUHU216HW,2013-08-07 11:43:00,
2013-08-07 07:48:00,78.8,73.3,29.91,ESE,113,0.4,0.9,83,0.00,,,0.00,WUHU216HW,2013-08-07 11:48:00,
2013-08-07 07:53:00,79.0,73.5,29.91,ESE,113,0.0,0.9,83,0.00,,,0.00,WUHU216HW,2013-08-07 11:53:00,
2013-08-07 07:58:00,79.0,73.5,29.91,ESE,113,1.6,1.6,83,0.00,,,0.00,WUHU216HW,2013-08-07 11:58:00,
2013-08-07 08:03:00,79.0,73.5,29.91,ESE,113,0.0,1.6,83,0.00,,,0.00,WUHU216HW,2013-08-07 12:03:00,
2013-08-07 08:09:00,79.2,73.3,29.91,ESE,113,1.1,1.6,82,0.00,,,0.00,WUHU216HW,2013-08-07 12:09:00,
2013-08-07 08:14:00,79.2,73.3,29.91,ESE,113,1.6,1.8,82,0.00,,,0.00,WUHU216HW,2013-08-07 12:14:00,
2013-08-07 08:19:00,79.4,73.5,29.91,ENE,68,0.0,1.8,82,0.00,,,0.00,WUHU216HW,2013-08-07 12:19:00,
2013-08-07 08:24:00,79.4,73.5,29.91,East,90,2.5,2.9,82,0.00,,,0.00,WUHU216HW,2013-08-07 12:24:00,
2013-08-07 08:29:00,79.6,73.6,29.92,ESE,113,1.1,2.9,82,0.00,,,0.00,WUHU216HW,2013-08-07 12:29:00,
2013-08-07 08:34:00,79.6,73.6,29.92,ESE,113,0.2,3.4,82,0.00,,,0.00,WUHU216HW,2013-08-07 12:34:00,
2013-08-07 08:39:00,79.7,73.8,29.92,ESE,113,1.3,3.4,82,0.00,,,0.00,WUHU216HW,2013-08-07 12:39:00,
2013-08-07 08:44:00,79.7,73.5,29.92,SE,135,2.0,4.3,81,0.00,,,0.00,WUHU216HW,2013-08-07 12:44:00,
2013-08-07 08:49:00,79.9,73.6,29.92,SE,135,2.5,4.3,81,0.00,,,0.00,WUHU216HW,2013-08-07 12:49:00,
2013-08-07 08:54:00,80.1,73.8,29.92,SE,135,1.8,2.7,81,0.00,,,0.00,WUHU216HW,2013-08-07 12:54:00,
2013-08-07 08:59:00,80.3,74.0,29.92,SE,135,2.9,2.9,81,0.00,,,0.00,WUHU216HW,2013-08-07 12:59:00,
2013-08-07 09:04:00,80.5,74.2,29.92,SE,135,0.9,3.6,81,0.00,,,0.00,WUHU216HW,2013-08-07 13:04:00,
2013-08-07 09:10:00,80.6,74.4,29.92,East,90,1.1,3.6,81,0.00,,,0.00,WUHU216HW,2013-08-07 13:10:00,
2013-08-07 09:15:00,81.0,74.7,29.92,ESE,113,3.4,3.4,81,0.00,,,0.00,WUHU216HW,2013-08-07 13:15:00,
2013-08-07 09:20:00,81.2,74.9,29.92,ESE,113,0.4,3.4,81,0.00,,,0.00,WUHU216HW,2013-08-07 13:20:00,
2013-08-07 09:25:00,81.5,75.3,29.92,ESE,113,0.9,2.5,81,0.00,,,0.00,WUHU216HW,2013-08-07 13:25:00,
2013-08-07 09:30:00,82.1,75.8,29.92,SE,135,2.9,2.9,81,0.00,,,0.00,WUHU216HW,2013-08-07 13:30:00,
2013-08-07 09:35:00,82.4,76.2,29.93,SSE,158,0.4,2.9,81,0.00,,,0.00,WUHU216HW,2013-08-07 13:35:00,
2013-08-07 09:40:00,83.0,76.6,29.92,SE,135,1.1,2.7,81,0.00,,,0.00,WUHU216HW,2013-08-07 13:40:00,
2013-08-07 09:45:00,83.3,77.0,29.92,ESE,113,2.7,3.4,81,0.00,,,0.00,WUHU216HW,2013-08-07 13:45:00,
2013-08-07 09:50:00,83.7,77.3,29.93,SSE,158,0.7,3.4,81,0.00,,,0.00,WUHU216HW,2013-08-07 13:50:00,
2013-08-07 09:55:00,84.1,77.2,29.93,SE,135,1.8,3.4,80,0.00,,,0.00,WUHU216HW,2013-08-07 13:55:00,
2013-08-07 10:00:00,84.2,77.4,29.93,ESE,113,1.6,3.8,80,0.00,,,0.00,WUHU216HW,2013-08-07 14:00:00,
2013-08-07 10:05:00,84.4,77.6,29.93,SE,135,1.3,3.8,80,0.00,,,0.00,WUHU216HW,2013-08-07 14:05:00,
2013-08-07 10:10:00,85.1,78.0,29.93,SE,135,2.5,4.0,79,0.00,,,0.00,WUHU216HW,2013-08-07 14:10:00,
2013-08-07 10:15:00,85.5,78.3,29.93,SE,135,2.0,4.0,79,0.00,,,0.00,WUHU216HW,2013-08-07 14:15:00,
2013-08-07 10:20:00,86.0,78.9,29.94,SE,135,1.1,3.6,79,0.00,,,0.00,WUHU216HW,2013-08-07 14:20:00,
2013-08-07 10:25:00,86.2,78.6,29.94,SE,135,2.5,4.0,78,0.00,,,0.00,WUHU216HW,2013-08-07 14:25:00,
2013-08-07 10:31:00,86.4,78.4,29.94,SSE,158,1.6,4.0,77,0.00,,,0.00,WUHU216HW,2013-08-07 14:31:00,
2013-08-07 10:36:00,86.9,78.8,29.94,SW,225,0.2,5.4,77,0.00,,,0.00,WUHU216HW,2013-08-07 14:36:00,
2013-08-07 10:41:00,87.5,79.4,29.94,SSE,158,1.1,5.4,77,0.00,,,0.00,WUHU216HW,2013-08-07 14:41:00,
2013-08-07 10:46:00,87.5,79.0,29.94,ESE,113,1.8,3.4,76,0.00,,,0.00,WUHU216HW,2013-08-07 14:46:00,
2013-08-07 10:51:00,87.8,79.4,29.94,East,90,2.2,4.5,76,0.00,,,0.00,WUHU216HW,2013-08-07 14:51:00,
2013-08-07 10:56:00,88.2,79.7,29.94,ESE,113,1.8,4.0,76,0.00,,,0.00,WUHU216HW,2013-08-07 14:56:00,
2013-08-07 11:01:00,88.6,80.0,29.94,South,180,0.4,4.0,76,0.00,,,0.00,WUHU216HW,2013-08-07 15:01:00,
2013-08-07 11:07:00,88.9,79.6,29.94,SE,135,2.2,3.1,74,0.00,,,0.00,WUHU216HW,2013-08-07 15:07:00,
2013-08-07 11:12:00,88.9,79.1,29.94,ESE,113,2.2,2.2,73,0.00,,,0.00,WUHU216HW,2013-08-07 15:12:00,
2013-08-07 11:17:00,89.1,78.5,29.94,ESE,113,4.7,4.7,71,0.00,,,0.00,WUHU216HW,2013-08-07 15:17:00,
2013-08-07 11:22:00,89.3,78.3,29.94,ESE,113,1.3,4.7,70,0.00,,,0.00,WUHU216HW,2013-08-07 15:22:00,
2013-08-07 11:27:00,89.3,78.3,29.94,SSW,203,3.4,3.8,70,0.00,,,0.00,WUHU216HW,2013-08-07 15:27:00,
2013-08-07 11:32:00,89.6,79.0,29.93,South,180,1.1,3.8,71,0.00,,,0.00,WUHU216HW,2013-08-07 15:32:00,
2013-08-07 11:37:00,89.8,79.2,29.93,SSE,158,2.5,2.7,71,0.00,,,0.00,WUHU216HW,2013-08-07 15:37:00,
2013-08-07 11:42:00,90.0,79.0,29.93,SSW,203,2.2,3.1,70,0.00,,,0.00,WUHU216HW,2013-08-07 15:42:00,
2013-08-07 11:47:00,90.0,77.6,29.93,SE,135,2.5,6.0,67,0.00,,,0.00,WUHU216HW,2013-08-07 15:47:00,
2013-08-07 11:52:00,89.6,77.8,29.93,SSE,158,1.8,6.0,68,0.00,,,0.00,WUHU216HW,2013-08-07 15:52:00,
2013-08-07 11:57:00,89.6,77.8,29.93,SSE,158,4.7,4.7,68,0.00,,,0.00,WUHU216HW,2013-08-07 15:57:00,
2013-08-07 12:02:00,90.0,78.5,29.93,SSE,158,1.6,4.7,69,0.00,,,0.00,WUHU216HW,2013-08-07 16:02:00,
2013-08-07 12:07:00,90.5,79.0,29.93,SSE,158,1.8,4.7,69,0.00,,,0.00,WUHU216HW,2013-08-07 16:07:00,
2013-08-07 12:12:00,90.4,78.8,29.93,SE,135,1.8,4.7,69,0.00,,,0.00,WUHU216HW,2013-08-07 16:12:00,
2013-08-07 12:18:00,90.4,79.3,29.92,SSE,158,2.0,4.0,70,0.00,,,0.00,WUHU216HW,2013-08-07 16:18:00,
2013-08-07 12:23:00,90.9,79.3,29.92,SW,225,1.1,3.8,69,0.00,,,0.00,WUHU216HW,2013-08-07 16:23:00,
2013-08-07 12:28:00,91.3,79.7,29.92,SE,135,2.7,3.8,69,0.00,,,0.00,WUHU216HW,2013-08-07 16:28:00,
2013-08-07 12:33:00,91.6,79.6,29.92,East,90,0.7,3.8,68,0.00,,,0.00,WUHU216HW,2013-08-07 16:33:00,
2013-08-07 12:38:00,92.0,79.4,29.92,ESE,113,2.0,5.1,67,0.00,,,0.00,WUHU216HW,2013-08-07 16:38:00,
2013-08-07 12:43:00,92.0,78.9,29.92,SE,135,0.9,3.6,66,0.00,,,0.00,WUHU216HW,2013-08-07 16:43:00,
2013-08-07 12:48:00,91.6,78.6,29.91,SSE,158,2.7,3.6,66,0.00,,,0.00,WUHU216HW,2013-08-07 16:48:00,
2013-08-07 12:53:00,91.6,79.0,29.91,SW,225,0.0,3.6,67,0.00,,,0.00,WUHU216HW,2013-08-07 16:53:00,
2013-08-07 12:58:00,91.8,78.3,29.91,ESE,113,1.6,4.3,65,0.00,,,0.00,WUHU216HW,2013-08-07 16:58:00,
2013-08-07 13:03:00,91.8,79.2,29.91,SSE,158,3.4,4.3,67,0.00,,,0.00,WUHU216HW,2013-08-07 17:03:00,
2013-08-07 13:08:00,92.2,79.6,29.91,South,180,1.8,3.4,67,0.00,,,0.00,WUHU216HW,2013-08-07 17:08:00,
2013-08-07 13:14:00,92.3,78.8,29.91,SSE,158,1.3,2.7,65,0.00,,,0.00,WUHU216HW,2013-08-07 17:14:00,
2013-08-07 13:19:00,92.3,79.3,29.91,SSE,158,3.4,3.4,66,0.00,,,0.00,WUHU216HW,2013-08-07 17:19:00,
2013-08-07 13:24:00,92.5,79.0,29.90,SSW,203,1.1,4.0,65,0.00,,,0.00,WUHU216HW,2013-08-07 17:24:00,
2013-08-07 13:29:00,92.0,78.9,29.90,SE,135,2.2,4.0,66,0.00,,,0.00,WUHU216HW,2013-08-07 17:29:00,
2013-08-07 13:34:00,91.6,78.1,29.90,SE,135,1.1,2.5,65,0.00,,,0.00,WUHU216HW,2013-08-07 17:34:00,
2013-08-07 13:39:00,91.4,78.4,29.89,SE,135,1.3,2.2,66,0.00,,,0.00,WUHU216HW,2013-08-07 17:39:00,
2013-08-07 13:44:00,91.3,78.2,29.89,South,180,0.9,3.8,66,0.00,,,0.00,WUHU216HW,2013-08-07 17:44:00,
2013-08-07 13:49:00,91.3,78.2,29.89,South,180,0.2,3.8,66,0.00,,,0.00,WUHU216HW,2013-08-07 17:49:00,
2013-08-07 13:54:00,91.1,78.6,29.89,SSE,158,0.4,3.4,67,0.00,,,0.00,WUHU216HW,2013-08-07 17:54:00,
2013-08-07 13:59:00,90.9,78.4,29.89,South,180,3.4,3.4,67,0.00,,,0.00,WUHU216HW,2013-08-07 17:59:00,
2013-08-07 14:04:00,90.7,78.2,29.89,SSE,158,0.2,3.4,67,0.00,,,0.00,WUHU216HW,2013-08-07 18:04:00,
2013-08-07 14:09:00,90.4,78.8,29.90,SSW,203,0.0,1.3,69,0.06,,,0.06,WUHU216HW,2013-08-07 18:09:00,
2013-08-07 14:14:00,89.5,78.8,29.90,SSE,158,1.1,1.3,71,0.06,,,0.06,WUHU216HW,2013-08-07 18:14:00,
2013-08-07 14:20:00,89.1,78.9,29.90,South,180,0.4,1.1,72,0.06,,,0.06,WUHU216HW,2013-08-07 18:20:00,
2013-08-07 14:25:00,88.9,78.8,29.90,WSW,248,0.4,1.1,72,0.06,,,0.06,WUHU216HW,2013-08-07 18:25:00,
2013-08-07 14:30:00,88.9,79.1,29.90,West,270,0.0,1.1,73,0.06,,,0.06,WUHU216HW,2013-08-07 18:30:00,
2013-08-07 14:35:00,88.7,79.4,29.91,SE,135,0.4,1.8,74,0.06,,,0.06,WUHU216HW,2013-08-07 18:35:00,
2013-08-07 14:40:00,88.6,79.2,29.90,SE,135,1.3,2.2,74,0.06,,,0.06,WUHU216HW,2013-08-07 18:40:00,
2013-08-07 14:45:00,88.2,78.5,29.90,SSW,203,0.9,2.2,73,0.06,,,0.06,WUHU216HW,2013-08-07 18:45:00,
2013-08-07 14:50:00,88.0,77.9,29.91,SE,135,1.6,2.2,72,0.06,,,0.06,WUHU216HW,2013-08-07 18:50:00,
2013-08-07 14:55:00,87.8,77.7,29.90,SE,135,0.0,2.2,72,0.06,,,0.06,WUHU216HW,2013-08-07 18:55:00,
2013-08-07 15:00:00,87.8,77.7,29.89,South,180,0.0,1.6,72,0.06,,,0.06,WUHU216HW,2013-08-07 19:00:00,
2013-08-07 15:05:00,88.0,77.9,29.89,WSW,248,1.1,1.1,72,0.00,,,0.06,WUHU216HW,2013-08-07 19:05:00,
2013-08-07 15:11:00,88.0,78.3,29.89,WSW,248,0.2,1.1,73,0.00,,,0.06,WUHU216HW,2013-08-07 19:11:00,
2013-08-07 15:16:00,87.8,78.1,29.89,West,270,0.2,0.4,73,0.00,,,0.06,WUHU216HW,2013-08-07 19:16:00,
2013-08-07 15:21:00,87.8,78.1,29.88,WSW,248,0.0,1.1,73,0.00,,,0.06,WUHU216HW,2013-08-07 19:21:00,
2013-08-07 15:26:00,87.8,78.1,29.89,NW,315,0.0,1.1,73,0.00,,,0.06,WUHU216HW,2013-08-07 19:26:00,
2013-08-07 15:31:00,87.7,78.0,29.89,NNW,338,0.4,1.1,73,0.00,,,0.06,WUHU216HW,2013-08-07 19:31:00,
2013-08-07 15:36:00,87.7,78.0,29.89,WNW,293,1.6,1.6,73,0.00,,,0.06,WUHU216HW,2013-08-07 19:36:00,
2013-08-07 15:41:00,87.5,77.8,29.88,WSW,248,1.1,1.6,73,0.00,,,0.06,WUHU216HW,2013-08-07 19:41:00,
2013-08-07 15:46:00,87.7,78.0,29.88,West,270,1.1,1.1,73,0.00,,,0.06,WUHU216HW,2013-08-07 19:46:00,
2013-08-07 15:51:00,87.7,78.0,29.89,NW,315,0.4,1.1,73,0.00,,,0.06,WUHU216HW,2013-08-07 19:51:00,
2013-08-07 15:56:00,87.5,77.8,29.89,NNW,338,1.6,1.8,73,0.00,,,0.06,WUHU216HW,2013-08-07 19:56:00,
2013-08-07 16:01:00,86.9,76.9,29.89,NNW,338,3.4,4.9,72,0.00,,,0.06,WUHU216HW,2013-08-07 20:01:00,
2013-08-07 16:07:00,85.3,76.2,29.89,NW,315,3.4,4.9,74,0.00,,,0.06,WUHU216HW,2013-08-07 20:07:00,
2013-08-07 16:12:00,84.2,75.4,29.89,NNW,338,2.9,4.5,75,0.00,,,0.06,WUHU216HW,2013-08-07 20:12:00,
2013-08-07 16:17:00,83.9,75.5,29.89,NE,45,2.9,5.4,76,0.00,,,0.06,WUHU216HW,2013-08-07 20:17:00,
2013-08-07 16:22:00,83.9,75.5,29.89,NNW,338,0.4,5.4,76,0.00,,,0.06,WUHU216HW,2013-08-07 20:22:00,
2013-08-07 16:27:00,84.1,75.7,29.89,NNW,338,2.0,3.4,76,0.00,,,0.06,WUHU216HW,2013-08-07 20:27:00,
2013-08-07 16:32:00,84.2,75.8,29.89,WNW,293,1.1,2.0,76,0.00,,,0.06,WUHU216HW,2013-08-07 20:32:00,
2013-08-07 16:37:00,84.2,75.8,29.89,NW,315,0.0,1.3,76,0.00,,,0.06,WUHU216HW,2013-08-07 20:37:00,
2013-08-07 16:42:00,84.2,76.2,29.89,NW,315,1.1,1.1,77,0.00,,,0.06,WUHU216HW,2013-08-07 20:42:00,
2013-08-07 16:47:00,84.2,76.2,29.89,SE,135,1.6,1.6,77,0.00,,,0.06,WUHU216HW,2013-08-07 20:47:00,
2013-08-07 16:52:00,84.2,75.8,29.90,SSE,158,0.9,5.4,76,0.00,,,0.06,WUHU216HW,2013-08-07 20:52:00,
2013-08-07 16:57:00,84.1,75.7,29.91,SSE,158,1.3,5.4,76,0.00,,,0.06,WUHU216HW,2013-08-07 20:57:00,
2013-08-07 17:02:00,83.9,75.9,29.91,SSE,158,1.1,4.0,77,0.00,,,0.06,WUHU216HW,2013-08-07 21:02:00,
2013-08-07 17:07:00,83.2,74.0,29.91,East,90,1.1,4.0,74,0.00,,,0.06,WUHU216HW,2013-08-07 21:07:00,
2013-08-07 17:12:00,82.6,73.9,29.91,ESE,113,1.1,4.0,75,0.00,,,0.06,WUHU216HW,2013-08-07 21:12:00,
2013-08-07 17:17:00,82.4,74.2,29.91,SSE,158,0.7,4.0,76,0.00,,,0.06,WUHU216HW,2013-08-07 21:17:00,
2013-08-07 17:23:00,82.6,74.3,29.90,SE,135,1.1,1.8,76,0.00,,,0.06,WUHU216HW,2013-08-07 21:23:00,
2013-08-07 17:28:00,82.6,74.7,29.90,East,90,0.4,2.2,77,0.00,,,0.06,WUHU216HW,2013-08-07 21:28:00,
2013-08-07 17:33:00,82.8,74.9,29.90,ESE,113,0.0,2.2,77,0.00,,,0.06,WUHU216HW,2013-08-07 21:33:00,
2013-08-07 17:38:00,82.8,74.9,29.90,SSE,158,0.0,2.0,77,0.00,,,0.06,WUHU216HW,2013-08-07 21:38:00,
2013-08-07 17:43:00,82.6,74.7,29.89,SE,135,0.4,1.6,77,0.00,,,0.06,WUHU216HW,2013-08-07 21:43:00,
2013-08-07 17:48:00,82.4,74.5,29.89,ENE,68,0.4,1.6,77,0.00,,,0.06,WUHU216HW,2013-08-07 21:48:00,
2013-08-07 17:53:00,82.4,75.0,29.89,NE,45,1.1,1.3,78,0.00,,,0.06,WUHU216HW,2013-08-07 21:53:00,
2013-08-07 17:58:00,82.4,74.5,29.89,ESE,113,1.8,1.8,77,0.00,,,0.06,WUHU216HW,2013-08-07 21:58:00,
2013-08-07 18:03:00,82.4,75.0,29.89,ESE,113,1.8,1.8,78,0.00,,,0.06,WUHU216HW,2013-08-07 22:03:00,
2013-08-07 18:08:00,82.4,74.5,29.89,SE,135,0.4,2.9,77,0.00,,,0.06,WUHU216HW,2013-08-07 22:08:00,
2013-08-07 18:13:00,82.4,74.5,29.89,ENE,68,0.4,2.2,77,0.00,,,0.06,WUHU216HW,2013-08-07 22:13:00,
2013-08-07 18:18:00,82.4,74.5,29.89,NNE,23,1.3,2.2,77,0.00,,,0.06,WUHU216HW,2013-08-07 22:18:00,
2013-08-07 18:23:00,82.3,74.3,29.89,ESE,113,1.3,3.6,77,0.00,,,0.06,WUHU216HW,2013-08-07 22:23:00,
2013-08-07 18:28:00,82.3,74.3,29.89,NNE,23,0.2,3.6,77,0.00,,,0.06,WUHU216HW,2013-08-07 22:28:00,
2013-08-07 18:36:00,82.1,74.2,29.89,ESE,113,1.8,1.8,77,0.00,,,0.06,WUHU216HW,2013-08-07 22:36:00,
2013-08-07 18:41:00,82.3,74.8,29.90,East,90,0.0,1.8,78,0.00,,,0.06,WUHU216HW,2013-08-07 22:41:00,
2013-08-07 18:46:00,82.3,74.8,29.90,ESE,113,1.3,1.3,78,0.00,,,0.06,WUHU216HW,2013-08-07 22:46:00,
2013-08-07 18:51:00,82.3,74.3,29.90,ESE,113,0.7,1.8,77,0.00,,,0.06,WUHU216HW,2013-08-07 22:51:00,
2013-08-07 18:56:00,82.3,74.8,29.90,ESE,113,0.4,1.8,78,0.00,,,0.06,WUHU216HW,2013-08-07 22:56:00,
2013-08-07 19:01:00,82.3,74.8,29.90,NNE,23,0.4,1.1,78,0.00,,,0.06,WUHU216HW,2013-08-07 23:01:00,
2013-08-07 19:06:00,82.1,74.6,29.90,ENE,68,0.4,1.1,78,0.00,,,0.06,WUHU216HW,2013-08-07 23:06:00,
2013-08-07 19:11:00,81.9,74.4,29.90,NE,45,0.0,1.1,78,0.00,,,0.06,WUHU216HW,2013-08-07 23:11:00,
2013-08-07 19:16:00,81.7,73.8,29.90,NE,45,0.4,1.6,77,0.00,,,0.06,WUHU216HW,2013-08-07 23:16:00,
2013-08-07 19:21:00,81.5,73.7,29.90,NNE,23,0.0,1.6,77,0.00,,,0.06,WUHU216HW,2013-08-07 23:21:00,
2013-08-07 19:27:00,81.5,73.7,29.89,ENE,68,0.2,1.1,77,0.00,,,0.06,WUHU216HW,2013-08-07 23:27:00,
2013-08-07 19:32:00,81.5,74.4,29.89,East,90,0.4,1.1,79,0.00,,,0.06,WUHU216HW,2013-08-07 23:32:00,
2013-08-07 19:37:00,81.5,74.4,29.89,ESE,113,1.1,1.1,79,0.00,,,0.06,WUHU216HW,2013-08-07 23:37:00,
2013-08-07 19:42:00,81.5,74.4,29.88,ESE,113,0.7,1.8,79,0.00,,,0.06,WUHU216HW,2013-08-07 23:42:00,
2013-08-07 19:47:00,81.7,74.6,29.88,ESE,113,0.0,1.8,79,0.00,,,0.06,WUHU216HW,2013-08-07 23:47:00,
2013-08-07 19:52:00,81.7,74.6,29.89,ENE,68,0.4,1.1,79,0.00,,,0.06,WUHU216HW,2013-08-07 23:52:00,
2013-08-07 19:57:00,81.7,75.1,29.89,ESE,113,0.0,1.1,80,0.00,,,0.06,WUHU216HW,2013-08-07 23:57:00,
2013-08-07 20:02:00,81.7,75.1,29.89,NNE,23,0.0,0.9,80,0.00,,,0.06,WUHU216HW,2013-08-08 00:02:00,
2013-08-07 20:07:00,81.7,75.1,29.89,NNE,23,0.0,0.0,80,0.00,,,0.06,WUHU216HW,2013-08-08 00:07:00,
2013-08-07 20:12:00,81.5,74.9,29.90,NNE,23,0.4,0.4,80,0.00,,,0.06,WUHU216HW,2013-08-08 00:12:00,
2013-08-07 20:17:00,81.4,74.4,29.90,North,0,0.2,1.3,79,0.00,,,0.06,WUHU216HW,2013-08-08 00:17:00,
2013-08-07 20:22:00,81.4,74.4,29.90,North,0,0.2,1.3,79,0.00,,,0.06,WUHU216HW,2013-08-08 00:22:00,
2013-08-07 20:27:00,81.5,75.3,29.90,North,0,0.4,0.4,81,0.00,,,0.06,WUHU216HW,2013-08-08 00:27:00,
2013-08-07 20:32:00,81.4,74.4,29.90,North,0,1.3,1.3,79,0.00,,,0.06,WUHU216HW,2013-08-08 00:32:00,
2013-08-07 20:37:00,81.4,74.4,29.91,NNE,23,1.3,1.8,79,0.00,,,0.06,WUHU216HW,2013-08-08 00:37:00,
2013-08-07 20:43:00,81.4,74.4,29.91,North,0,0.9,1.8,79,0.00,,,0.06,WUHU216HW,2013-08-08 00:43:00,
2013-08-07 20:48:00,81.2,74.5,29.91,North,0,1.1,1.3,80,0.00,,,0.06,WUHU216HW,2013-08-08 00:48:00,
2013-08-07 20:53:00,81.4,74.7,29.91,NNW,338,0.4,1.3,80,0.00,,,0.06,WUHU216HW,2013-08-08 00:53:00,
2013-08-07 20:58:00,81.4,74.7,29.91,North,0,0.9,0.9,80,0.00,,,0.06,WUHU216HW,2013-08-08 00:58:00,
2013-08-07 21:03:00,81.4,74.7,29.91,North,0,0.4,1.1,80,0.00,,,0.06,WUHU216HW,2013-08-08 01:03:00,
2013-08-07 21:08:00,81.4,74.7,29.91,North,0,0.2,1.3,80,0.00,,,0.06,WUHU216HW,2013-08-08 01:08:00,
2013-08-07 21:13:00,81.4,74.7,29.91,North,0,0.0,1.3,80,0.00,,,0.06,WUHU216HW,2013-08-08 01:13:00,
2013-08-07 21:18:00,81.4,74.7,29.91,ENE,68,0.4,0.4,80,0.00,,,0.06,WUHU216HW,2013-08-08 01:18:00,
2013-08-07 21:23:00,81.4,74.7,29.92,ESE,113,0.4,0.4,80,0.00,,,0.06,WUHU216HW,2013-08-08 01:23:00,
2013-08-07 21:29:00,81.2,74.9,29.92,ESE,113,0.0,0.4,81,0.00,,,0.06,WUHU216HW,2013-08-08 01:29:00,
2013-08-07 21:33:00,81.0,74.7,29.92,ESE,113,0.2,0.4,81,0.00,,,0.06,WUHU216HW,2013-08-08 01:33:00,
2013-08-07 21:39:00,81.0,74.7,29.92,ESE,113,0.4,0.4,81,0.00,,,0.06,WUHU216HW,2013-08-08 01:39:00,
2013-08-07 21:44:00,81.0,74.3,29.92,ESE,113,0.4,0.4,80,0.00,,,0.06,WUHU216HW,2013-08-08 01:44:00,
2013-08-07 21:49:00,81.0,74.7,29.93,ESE,113,0.4,0.7,81,0.00,,,0.06,WUHU216HW,2013-08-08 01:49:00,
2013-08-07 21:54:00,81.0,74.7,29.93,East,90,1.3,1.3,81,0.00,,,0.06,WUHU216HW,2013-08-08 01:54:00,
2013-08-07 21:59:00,81.0,74.7,29.93,ESE,113,1.1,1.3,81,0.00,,,0.06,WUHU216HW,2013-08-08 01:59:00,
2013-08-07 22:04:00,80.8,74.5,29.93,ESE,113,1.3,1.3,81,0.00,,,0.06,WUHU216HW,2013-08-08 02:04:00,
2013-08-07 22:09:00,80.6,74.4,29.93,ESE,113,0.7,1.3,81,0.00,,,0.06,WUHU216HW,2013-08-08 02:09:00,
2013-08-07 22:14:00,80.6,74.4,29.93,ESE,113,0.4,1.3,81,0.00,,,0.06,WUHU216HW,2013-08-08 02:14:00,
2013-08-07 22:20:00,80.6,74.4,29.93,East,90,1.3,1.3,81,0.00,,,0.06,WUHU216HW,2013-08-08 02:20:00,
2013-08-07 22:25:00,80.6,74.4,29.93,ESE,113,0.9,1.8,81,0.00,,,0.06,WUHU216HW,2013-08-08 02:25:00,
2013-08-07 22:30:00,80.5,74.2,29.93,East,90,0.4,1.8,81,0.00,,,0.06,WUHU216HW,2013-08-08 02:30:00,
2013-08-07 22:35:00,80.3,74.0,29.93,ESE,113,0.2,1.3,81,0.00,,,0.06,WUHU216HW,2013-08-08 02:35:00,
2013-08-07 22:40:00,80.3,74.0,29.93,ESE,113,0.4,1.3,81,0.00,,,0.06,WUHU216HW,2013-08-08 02:40:00,
2013-08-07 22:45:00,80.3,74.0,29.93,East,90,1.3,1.3,81,0.00,,,0.06,WUHU216HW,2013-08-08 02:45:00,
2013-08-07 22:50:00,80.3,74.0,29.93,ESE,113,0.4,2.0,81,0.00,,,0.06,WUHU216HW,2013-08-08 02:50:00,
2013-08-07 22:55:00,80.3,74.0,29.94,ESE,113,0.0,2.0,81,0.00,,,0.06,WUHU216HW,2013-08-08 02:55:00,
2013-08-07 23:00:00,80.3,74.0,29.94,ESE,113,0.9,1.8,81,0.00,,,0.06,WUHU216HW,2013-08-08 03:00:00,
2013-08-07 23:05:00,80.3,74.0,29.94,ESE,113,0.9,1.8,81,0.00,,,0.06,WUHU216HW,2013-08-08 03:05:00,
2013-08-07 23:11:00,80.3,74.0,29.94,ESE,113,0.4,1.8,81,0.00,,,0.06,WUHU216HW,2013-08-08 03:11:00,
2013-08-07 23:16:00,80.1,73.8,29.93,ESE,113,0.7,1.8,81,0.00,,,0.06,WUHU216HW,2013-08-08 03:16:00,
2013-08-07 23:21:00,80.1,73.8,29.94,ESE,113,0.4,1.3,81,0.00,,,0.06,WUHU216HW,2013-08-08 03:21:00,
2013-08-07 23:26:00,80.1,73.8,29.94,East,90,1.3,1.3,81,0.00,,,0.06,WUHU216HW,2013-08-08 03:26:00,
2013-08-07 23:31:00,80.1,73.8,29.94,ESE,113,1.6,1.6,81,0.00,,,0.06,WUHU216HW,2013-08-08 03:31:00,
2013-08-07 23:36:00,79.9,73.6,29.94,ESE,113,0.7,1.6,81,0.00,,,0.06,WUHU216HW,2013-08-08 03:36:00,
2013-08-07 23:41:00,79.9,73.6,29.94,ESE,113,1.1,1.1,81,0.00,,,0.06,WUHU216HW,2013-08-08 03:41:00,
2013-08-07 23:46:00,79.9,73.6,29.94,East,90,0.4,1.3,81,0.00,,,0.06,WUHU216HW,2013-08-08 03:46:00,
2013-08-07 23:55:00,79.9,73.6,29.94,NE,45,1.1,2.0,81,0.00,,,0.06,WUHU216HW,2013-08-08 03:55:00,